Location: ???????
(55.4362°N, 38.1183°E)
Time: 17:24:33
(UTC+00:00)

Cosmos 2278 Rocket - Pass Details

Date: 23 October 2021
Orbit: 841 x 845 km, 71.0° (Epoch: 28 November)

Event Time Altitude Azimuth Distance (km) Brightness Sun altitude
Rises 16:15:32 0° 323° (NW) 3,419 6.0 -18.6°
Reaches altitude 10° 16:18:11 10° 332° (NNW) 2,480 5.1 -19.0°
Maximum altitude 16:23:27 37° 40° (NE) 1,289 2.9 -19.7°
Enters shadow 16:24:45 33° 69° (ENE) 1,390 2.9 -19.9°
